ABS-7

Last updated on Jan. 15, 2021, 6:30 a.m. UTC

1 25894U 99046A   21014.89436708  .00000024  00000-0  00000-0 0  9995
2 25894   1.4815  92.9651 0005323 207.7002 201.0274  1.00129392 77289
UTC
Height (km)
Latitude
Longitude
Inclination
Orbital Period
UTC large
Height (km)
Speed (km/s)
/
Latitude / Longitude
Inclination (degrees)
Orbital Period (minutes)
Azimuth
Elevation
Range (km)
Doppler Factor
iOS Compass Heading
iOS Angle

Next 30 passes for location: Hong Kong

Rise time Rise Azimuth (degrees) Set time Set Azimuth (degrees) Duration Max altitude (degrees)

No matching passes for this satellites